Location: Boda
(47.1872°N, 9.5454°E)
Time: 17:28:23
(UTC+00:00)

Cosmos 332 Rocket - Pass Details

Date: 14 May 2021
Orbit: 683 x 703 km, 74.0° (Epoch: 15 June)

Event Time Altitude Azimuth Distance (km) Brightness Sun altitude
Exits shadow 01:18:56 35° 183° (S) 1,130 4.4 -18.8°
Maximum altitude 01:20:58 70° 109° (ESE) 743 3.9 -18.6°
Drops below altitude 10° 01:25:49 10° 26° (NNE) 2,161 7.6 -18.2°
Sets 01:28:08 0° 25° (NNE) 3,079 8.8 -18.0°
